Weather Roundup
Issued by NWS

Home | Current Version | Previous Version | Text Only | Print | Product List | Glossary On
Versions: 1 2 3 4 5 6 7 8 9 10 11 12 13 14 15 16 17 18 19 20 21 22 23 24 25 26 27 28 29 30 31 32 33 34 35 36 37 38 39 40 41 42 43 44 45 46 47 48 49 50
000
NZUS93 KARX 212010
HRRWXR

CURRENT HOURLY OBSERVATIONS ACROSS
MUCH OF THE UPPER MISSISSIPPI VALLEY
NATIONAL WEATHER SERVICE LA CROSSE WI
200 PM CST TUE FEB 21 2017


...SOUTHEAST MINNESOTA...


CITY           SKY/WX    TMP DP  RH WIND       PRES   REMARKS
ROCHESTER      SUNNY     55  44  66 S20       29.83F
ROCHESTER/MAYO FAIR      58  39  49 S18G24    29.82F
WINONA         MOSUNNY   61  37  41 S5        29.85F
AUSTIN         SUNNY     57  45  62 S12       29.84F
ALBERT LEA     SUNNY     59  43  55 S13G23    29.81F
DODGE CENTER   SUNNY     55  45  67 S23       29.81F
PRESTON        SUNNY     55  43  63 S17       29.86F
OWATONNA       MOSUNNY   59  43  55 S20G26    29.79F
FARIBAULT      MOSUNNY   57  43  58 S12G21    29.78F
$$

...ELSEWHERE IN MINNESOTA...


CITY           SKY/WX    TMP DP  RH WIND       PRES   REMARKS
MINNEAPOLIS    PTSUNNY   61  36  39 S13G26    29.74F
INTNL FALLS    CLOUDY    42  34  73 SE5       29.69F
DULUTH         MOSUNNY   47  36  65 S13       29.70F
RED WING       MOSUNNY   57  39  51 S7        29.79F
REDWOOD FALLS  PTSUNNY   61  42  49 SW20      29.70F
MANKATO          N/A     59  46  62 S14G25    29.75F
WORTHINGTON    SUNNY     60  45  57 S22G29    29.75F
FAIRMONT       SUNNY     62  46  55 S20       29.77F
$$

...SOUTHWEST WISCONSIN...


CITY           SKY/WX    TMP DP  RH WIND       PRES   REMARKS
LA CROSSE      MOSUNNY   58  41  53 S9        29.87F
PRAIRIE DU CHI SUNNY     59  39  47 CALM      29.89F
BOSCOBEL       SUNNY     62  38  40 W6        29.89F
LONE ROCK      SUNNY     61  42  49 CALM      29.89F
PLATTEVILLE    SUNNY     59  45  60 SW6       29.90F
FORT MC COY    SUNNY     60  35  38 S7        29.88F
CAMP DOUGLAS   MOSUNNY   61  41  48 S9        29.87F
MAUSTON-NEW LI CLEAR     60  37  41 S6        29.87F
VIROQUA        FAIR      58  36  44 SW7       29.89F
WIS DELLS      SUNNY     60  33  35 CALM      29.89F
$$

...ELSEWHERE IN WISCONSIN...


CITY           SKY/WX    TMP DP  RH WIND       PRES   REMARKS
MILWAUKEE      MOSUNNY   65  40  39 W6        29.89F
MADISON        MOSUNNY   59  33  37 S6        29.89F
GREEN BAY      SUNNY     58  46  64 SW9       29.88F
EAU CLAIRE     SUNNY     54  36  50 S14       29.81F
BLACK RVR FLS  FAIR      58  38  47 SW5       29.86F
MEDFORD        SUNNY     47  40  75 S7        29.84F
WAUSAU         SUNNY     50  37  61 S5        29.84F
WIS RAPIDS     SUNNY     57  40  52 S9        29.87F
MARSHFIELD     SUNNY     55  36  48 SW7       29.85F
RICE LAKE      SUNNY     49  37  61 SE14      29.80F
$$

...NORTHEAST IOWA...


CITY           SKY/WX    TMP DP  RH WIND       PRES   REMARKS
WATERLOO       SUNNY     59  41  51 S9        29.89F
DUBUQUE        SUNNY     59  42  53 SW6       29.90F
DECORAH        SUNNY     55  39  54 S8G14     29.87F
MASON CITY     SUNNY     58  45  62 S14       29.87F
CHARLES CITY   SUNNY     57  48  72 S12G17    29.88F
OELWEIN        SUNNY     57  46  67 SW9       29.91F
$$

...ELSEWHERE IN IOWA...


CITY           SKY/WX    TMP DP  RH WIND       PRES   REMARKS
DES MOINES     MOSUNNY   67  37  33 SW13      29.91F
IOWA CITY      SUNNY     64  42  44 CALM      29.92F
FORT DODGE     SUNNY     63  45  51 SW15G21   29.86F
MARSHALLTOWN   SUNNY     61  44  53 SW9       29.90F
CEDAR RAPIDS   SUNNY     62  41  46 MISG      29.90F
$$

...NORTHERN ILLINOIS...


CITY           SKY/WX    TMP DP  RH WIND       PRES   REMARKS
CHICAGO-OHARE  CLOUDY    64  54  69 SW7       29.89F
CHICAGO-MIDWAY CLOUDY    64  53  67 SW8       29.90F
MOLINE         SUNNY     68  45  43 N5        29.90F
ROCKFORD       MOSUNNY   63  44  50 S5        29.92F
PEORIA         CLOUDY    66  57  72 CALM      29.91S
$$

NOTE: "FAIR" INDICATES FEW OR NO CLOUDS BELOW 12,000 FEET WITH NO
SIGNIFICANT WEATHER AND/OR OBSTRUCTIONS TO VISIBILITY. WIND
SPEEDS ARE IN MILES-PER-HOUR.




USA.gov is the U.S. government's official web portal to all federal, state and local government web resources and services.